Regional Weather Roundup
Issued by NWS

Home | Current Version | Previous Version | Graphics & Text | Print | Product List | Glossary On
Versions: 1 2 3 4 5 6 7 8 9 10 11 12 13 14 15 16 17 18 19 20 21 22 23 24 25 26 27 28 29 30 31 32 33 34 35 36 37 38 39 40 41 42 43 44 45 46 47 48 49 50
300
ASUS45 KCYS 080910
RWRWY

WYOMING REGIONAL WEATHER ROUNDUP
NATIONAL WEATHER SERVICE CHEYENNE WY
200 AM MST MON FEB 08 2016

NOTE:  "FAIR" INDICATES FEW OR NO CLOUDS BELOW 12,000 FEET
WITH NO SIGNIFICANT WEATHER AND/OR OBSTRUCTIONS TO VISIBILITY.

WYZ001-081000-
YELLOWSTONE NATIONAL PARK

CITY           SKY/WX    TMP DP  RH WIND       PRES   REMARKS
LK YELLOWSTONE   N/A     21  15  78 CALM      30.56R
W YELLOWSTONE  NOT AVBL

$$
WYZ002>013-054>058-071-098>099-081000-
NORTHERN WYOMING

CITY           SKY/WX    TMP DP  RH WIND       PRES   REMARKS
JACKSON        FAIR      14  10  85 N3        30.55S
CODY           FAIR      23  14  68 CALM      30.39F
GREYBULL       FAIR      28  19  69 CALM      30.43F
WORLAND        FAIR      25  18  74 SW5       30.43F WCI  19
SHERIDAN       CLOUDY    30  14  51 W7        30.39F WCI  23
BUFFALO        MOCLDY    24  11  57 CALM      30.37F
GILLETTE       FAIR      20   9  62 W14       30.36F WCI   7
HULETT         FAIR      25  10  54 CALM      30.35R
NEWCASTLE      FAIR      23   7  50 NW15G21   30.32S WCI  10

$$
WYZ014>020-022>026-101>103-081000-
CENTRAL WYOMING

CITY           SKY/WX    TMP DP  RH WIND       PRES   REMARKS
BIG PINEY      FAIR      20  12  71 N15       30.48F WCI   6
PINEDALE       FAIR      28  18  64 W15G21    30.47R WCI  17
DUBOIS         FAIR      32  19  59 W32G41    30.42F WCI  17
LANDER         FAIR      16   9  74 W8        30.39F WCI   5
RIVERTON       FAIR      16   8  71 NW7       30.41S WCI   6
CASPER         CLOUDY    25  13  60 SW16      30.39S WCI  12
DOUGLAS        CLOUDY    20  11  68 NW13        N/A  WCI   7

$$
WYZ021-027>030-104>119-081000-
SOUTHERN WYOMING

CITY           SKY/WX    TMP DP  RH WIND       PRES   REMARKS
EVANSTON       FAIR      22  14  71 S8        30.60S WCI  12
FORT BRIDGER   SUNNY     30  18  59 W25       30.58F WCI  16
ROCK SPRINGS   FAIR      25  16  68 W14       30.50S WCI  13
DIXON          CLOUDY    19  14  81 SE3       30.54F
RAWLINS        MOCLDY    25  16  68 W16       30.43F WCI  12
SARATOGA       CLOUDY    30  19  64 W21       30.44S WCI  17
LARAMIE          N/A     27  16  63 N8        30.34R WCI  19
CHEYENNE       CLOUDY    21  13  71 N7        30.32S WCI  12
TORRINGTON     CLOUDY    23  11  60 NW8       30.39R WCI  14
PINE BLUFFS    CLOUDY    23  12  63 N13       30.36S WCI  11

$$




USA.gov is the U.S. government's official web portal to all federal, state and local government web resources and services.